AUA61KH LOWW-LDSP

Flight info

Callsign AUA61KH
Flight time 0h 54m
Altitude 35000
Route STEIN DCT NOHAT DCT NEKIN DCT NIVES DCT NUPSO
Aircraft A321/M-SDE3FGHIRWY/LB1

Departure

Time 2026-05-04 12:26
Airport Vienna International Airport (LOWW)

Arrival

Time 2026-05-04 13:21
Airport Split Saint Jerome Airport (LDSP)
Time Latitude Longitude Altitude Speed Heading
2026-05-04 11:27 48.11936 16.56662 610 ft 0 kts 206°
2026-05-04 12:18 48.11938 16.56662 620 ft 2 kts 206°
2026-05-04 12:19 48.11959 16.56683 626 ft 4 kts 225°
2026-05-04 12:19 48.11976 16.56714 625 ft 4 kts 233°
2026-05-04 12:19 48.11988 16.56736 618 ft 4 kts 170°
2026-05-04 12:19 48.11983 16.56751 618 ft 0 kts 116°
2026-05-04 12:22 48.11982 16.56751 618 ft 0 kts 116°
2026-05-04 12:22 48.11970 16.56791 618 ft 9 kts 116°
2026-05-04 12:22 48.11931 16.56910 621 ft 16 kts 116°
2026-05-04 12:23 48.11884 16.57053 614 ft 15 kts 116°
2026-05-04 12:23 48.11855 16.57188 610 ft 11 kts 89°
2026-05-04 12:23 48.11850 16.57297 620 ft 10 kts 48°
2026-05-04 12:23 48.11914 16.57301 610 ft 9 kts 346°
2026-05-04 12:24 48.11984 16.57302 622 ft 12 kts 33°
2026-05-04 12:24 48.11994 16.57357 615 ft 3 kts 81°
2026-05-04 12:24 48.12006 16.57419 625 ft 9 kts 74°
2026-05-04 12:24 48.12008 16.57500 617 ft 7 kts 105°
2026-05-04 12:25 48.11993 16.57603 610 ft 14 kts 103°
2026-05-04 12:25 48.11969 16.57739 618 ft 13 kts 111°
2026-05-04 12:25 48.11912 16.57842 615 ft 13 kts 148°
2026-05-04 12:25 48.11877 16.57860 615 ft 8 kts 163°
2026-05-04 12:26 48.11580 16.57987 618 ft 77 kts 164°
2026-05-04 12:26 48.10878 16.58283 620 ft 130 kts 164°
2026-05-04 12:26 48.09875 16.58702 668 ft 164 kts 164°
2026-05-04 12:26 48.08785 16.59159 1287 ft 162 kts 166°
2026-05-04 12:27 48.07691 16.59632 1921 ft 167 kts 163°
2026-05-04 12:27 48.06525 16.60137 2247 ft 188 kts 164°
2026-05-04 12:27 48.05174 16.60711 2486 ft 211 kts 165°
2026-05-04 12:27 48.03667 16.61346 2843 ft 237 kts 165°
2026-05-04 12:28 48.02068 16.62020 3565 ft 245 kts 165°
2026-05-04 12:28 48.00403 16.62724 4317 ft 252 kts 166°
2026-05-04 12:28 47.98686 16.63367 5067 ft 258 kts 176°
2026-05-04 12:28 47.96883 16.63355 5867 ft 260 kts 184°
2026-05-04 12:29 47.95065 16.63249 6646 ft 264 kts 184°
2026-05-04 12:29 47.93217 16.63127 7401 ft 267 kts 184°
2026-05-04 12:29 47.91356 16.63005 8176 ft 268 kts 184°
2026-05-04 12:29 47.89485 16.62881 8937 ft 271 kts 184°
2026-05-04 12:30 47.87592 16.62759 9735 ft 273 kts 184°
2026-05-04 12:30 47.85644 16.62638 10296 ft 285 kts 184°
2026-05-04 12:30 47.83613 16.62509 10458 ft 307 kts 184°
2026-05-04 12:30 47.81383 16.62366 10632 ft 327 kts 184°
2026-05-04 12:31 47.79104 16.62224 11118 ft 334 kts 184°
2026-05-04 12:31 47.76772 16.62082 11741 ft 338 kts 184°
2026-05-04 12:31 47.74404 16.61940 12413 ft 342 kts 184°
2026-05-04 12:31 47.72025 16.61793 13088 ft 344 kts 184°
2026-05-04 12:32 47.69614 16.61646 13744 ft 348 kts 184°
2026-05-04 12:32 47.64734 16.61351 14900 ft 354 kts 184°
2026-05-04 12:32 47.62259 16.61196 15451 ft 357 kts 184°
2026-05-04 12:33 47.59766 16.61042 15990 ft 360 kts 184°
2026-05-04 12:33 47.57252 16.60884 16518 ft 363 kts 184°
2026-05-04 12:33 47.54713 16.60723 17016 ft 367 kts 184°
2026-05-04 12:33 47.52156 16.60561 17541 ft 369 kts 184°
2026-05-04 12:34 47.49580 16.60400 18051 ft 373 kts 184°
2026-05-04 12:34 47.46975 16.60239 18509 ft 376 kts 184°
2026-05-04 12:34 47.44352 16.60070 18927 ft 378 kts 184°
2026-05-04 12:34 47.41715 16.59933 19325 ft 381 kts 182°
2026-05-04 12:35 47.39047 16.59941 19726 ft 385 kts 180°
2026-05-04 12:35 47.36363 16.60058 20110 ft 388 kts 179°
2026-05-04 12:35 47.33661 16.60230 20491 ft 390 kts 179°
2026-05-04 12:35 47.30935 16.60415 20863 ft 393 kts 179°
2026-05-04 12:36 47.28189 16.60587 21227 ft 396 kts 179°
2026-05-04 12:36 47.25425 16.60734 21602 ft 399 kts 180°
2026-05-04 12:36 47.22679 16.60861 21983 ft 402 kts 180°
2026-05-04 12:36 47.19868 16.60980 22359 ft 405 kts 180°
2026-05-04 12:37 47.17040 16.61095 22754 ft 408 kts 180°
2026-05-04 12:37 47.14192 16.61209 23126 ft 411 kts 180°
2026-05-04 12:37 47.11317 16.61320 23508 ft 415 kts 180°
2026-05-04 12:37 47.08426 16.61436 23829 ft 418 kts 180°
2026-05-04 12:38 47.05508 16.61561 24154 ft 420 kts 179°
2026-05-04 12:38 47.02572 16.61692 24463 ft 423 kts 180°
2026-05-04 12:38 46.99620 16.61827 24782 ft 426 kts 180°
2026-05-04 12:38 46.96645 16.61962 25093 ft 429 kts 180°
2026-05-04 12:39 46.93652 16.62094 25410 ft 432 kts 180°
2026-05-04 12:39 46.90640 16.62226 25701 ft 435 kts 180°
2026-05-04 12:39 46.87600 16.62360 26010 ft 438 kts 180°
2026-05-04 12:39 46.84544 16.62494 26312 ft 440 kts 180°
2026-05-04 12:40 46.81474 16.62639 26600 ft 443 kts 178°
2026-05-04 12:40 46.78389 16.63157 26889 ft 447 kts 174°
2026-05-04 12:40 46.75296 16.63763 27180 ft 450 kts 174°
2026-05-04 12:40 46.72191 16.64368 27479 ft 452 kts 174°
2026-05-04 12:41 46.69061 16.64972 27784 ft 454 kts 174°
2026-05-04 12:41 46.65915 16.65570 28078 ft 457 kts 174°
2026-05-04 12:41 46.62752 16.66169 28375 ft 459 kts 174°
2026-05-04 12:41 46.59623 16.66761 28653 ft 461 kts 174°
2026-05-04 12:42 46.56427 16.67369 28923 ft 464 kts 174°
2026-05-04 12:42 46.53228 16.67980 29179 ft 465 kts 174°
2026-05-04 12:42 46.50003 16.68595 29420 ft 467 kts 174°
2026-05-04 12:42 46.46775 16.69204 29667 ft 469 kts 174°
2026-05-04 12:43 46.43516 16.69434 29882 ft 469 kts 184°
2026-05-04 12:43 46.40278 16.68934 30080 ft 468 kts 193°
2026-05-04 12:43 46.37140 16.67713 30337 ft 465 kts 201°
2026-05-04 12:43 46.34178 16.65856 30597 ft 463 kts 207°
2026-05-04 12:44 46.31276 16.63847 30873 ft 463 kts 207°
2026-05-04 12:44 46.28366 16.61846 31131 ft 462 kts 207°
2026-05-04 12:44 46.25459 16.59861 31390 ft 462 kts 207°
2026-05-04 12:44 46.22552 16.57883 31659 ft 462 kts 207°
2026-05-04 12:45 46.19643 16.55905 31929 ft 461 kts 207°
2026-05-04 12:45 46.16783 16.53956 32192 ft 461 kts 207°
2026-05-04 12:45 46.13846 16.51953 32458 ft 460 kts 207°
2026-05-04 12:45 46.10952 16.49981 32729 ft 460 kts 207°
2026-05-04 12:46 46.08097 16.48039 33010 ft 460 kts 207°
2026-05-04 12:46 46.05207 16.46075 33273 ft 459 kts 207°
2026-05-04 12:46 46.02279 16.44087 33540 ft 459 kts 207°
2026-05-04 12:46 45.99436 16.42156 33797 ft 458 kts 207°
2026-05-04 12:47 45.96550 16.40197 34049 ft 458 kts 207°
2026-05-04 12:47 45.93627 16.38217 34289 ft 457 kts 207°
2026-05-04 12:47 45.90791 16.36300 34518 ft 457 kts 207°
2026-05-04 12:47 45.87917 16.34364 34731 ft 456 kts 207°
2026-05-04 12:48 45.85039 16.32429 34960 ft 456 kts 207°
2026-05-04 12:48 45.79329 16.28593 35051 ft 451 kts 207°
2026-05-04 12:49 45.73664 16.24795 35054 ft 449 kts 207°
2026-05-04 12:49 45.68008 16.21016 35056 ft 448 kts 207°
2026-05-04 12:50 45.62358 16.17239 35057 ft 448 kts 207°
2026-05-04 12:50 45.56720 16.13478 35052 ft 448 kts 207°
2026-05-04 12:51 45.51067 16.09720 35061 ft 448 kts 207°
2026-05-04 12:51 45.45422 16.05982 35062 ft 448 kts 207°
2026-05-04 12:52 45.39776 16.02235 35058 ft 447 kts 207°
2026-05-04 12:52 45.34135 15.98506 35056 ft 447 kts 207°
2026-05-04 12:53 45.28493 15.94792 35063 ft 447 kts 207°
2026-05-04 12:53 45.22723 15.91457 35064 ft 450 kts 197°
2026-05-04 12:54 45.17564 15.90492 35063 ft 453 kts 184°
2026-05-04 12:54 45.11258 15.90203 35060 ft 453 kts 184°
2026-05-04 12:55 45.04947 15.89882 35064 ft 454 kts 184°
2026-05-04 12:55 44.98631 15.89550 35060 ft 454 kts 184°
2026-05-04 12:56 44.92323 15.89220 35065 ft 454 kts 184°
2026-05-04 12:56 44.86006 15.88892 35064 ft 454 kts 184°
2026-05-04 12:57 44.79674 15.88573 35066 ft 455 kts 184°
2026-05-04 12:57 44.73335 15.88264 35072 ft 456 kts 185°
2026-05-04 12:58 44.66991 15.87942 35079 ft 456 kts 185°
2026-05-04 12:58 44.60641 15.87617 34863 ft 457 kts 185°
2026-05-04 12:58 44.57466 15.87454 34307 ft 459 kts 185°
2026-05-04 12:59 44.54244 15.87282 33287 ft 465 kts 184°
2026-05-04 12:59 44.51006 15.87114 32387 ft 467 kts 184°
2026-05-04 12:59 44.47734 15.86949 31403 ft 471 kts 184°
2026-05-04 12:59 44.44468 15.86784 30693 ft 469 kts 183°
2026-05-04 13:00 44.41221 15.86624 30114 ft 464 kts 183°
2026-05-04 13:00 44.37993 15.86468 29440 ft 460 kts 183°
2026-05-04 13:00 44.34811 15.86314 28850 ft 455 kts 183°
2026-05-04 13:00 44.31673 15.86159 28256 ft 449 kts 183°
2026-05-04 13:01 44.28568 15.86006 27677 ft 444 kts 184°
2026-05-04 13:01 44.25495 15.85849 27100 ft 439 kts 184°
2026-05-04 13:01 44.22491 15.85691 26539 ft 434 kts 184°
2026-05-04 13:01 44.19450 15.85536 25968 ft 430 kts 184°
2026-05-04 13:02 44.16476 15.85390 25419 ft 425 kts 184°
2026-05-04 13:02 44.13531 15.85267 24873 ft 421 kts 181°
2026-05-04 13:02 44.10616 15.85486 24340 ft 417 kts 178°
2026-05-04 13:02 44.07737 15.85746 23826 ft 412 kts 178°
2026-05-04 13:03 44.04894 15.86001 23265 ft 406 kts 178°
2026-05-04 13:03 44.02105 15.86250 22780 ft 398 kts 178°
2026-05-04 13:03 43.99368 15.86497 22330 ft 390 kts 178°
2026-05-04 13:03 43.96720 15.86734 21893 ft 383 kts 178°
2026-05-04 13:04 43.94047 15.86968 21447 ft 376 kts 178°
2026-05-04 13:04 43.91450 15.87193 21020 ft 370 kts 178°
2026-05-04 13:04 43.88895 15.87420 20595 ft 366 kts 177°
2026-05-04 13:04 43.86374 15.87644 20162 ft 362 kts 177°
2026-05-04 13:05 43.83870 15.87864 19734 ft 359 kts 177°
2026-05-04 13:05 43.81415 15.88077 19300 ft 356 kts 177°
2026-05-04 13:05 43.78960 15.88291 18878 ft 352 kts 176°
2026-05-04 13:05 43.76517 15.88506 18436 ft 349 kts 176°
2026-05-04 13:06 43.74107 15.88718 17962 ft 346 kts 176°
2026-05-04 13:06 43.71714 15.88926 17531 ft 343 kts 176°
2026-05-04 13:06 43.69339 15.89131 17099 ft 340 kts 176°
2026-05-04 13:06 43.66977 15.89337 16670 ft 338 kts 176°
2026-05-04 13:07 43.64638 15.89540 16248 ft 335 kts 176°
2026-05-04 13:07 43.62321 15.89740 15827 ft 333 kts 176°
2026-05-04 13:07 43.60013 15.89939 15409 ft 331 kts 176°
2026-05-04 13:07 43.57724 15.90137 14994 ft 329 kts 176°
2026-05-04 13:08 43.55452 15.90337 14577 ft 327 kts 176°
2026-05-04 13:08 43.53187 15.90537 14151 ft 324 kts 175°
2026-05-04 13:08 43.50944 15.90731 13709 ft 322 kts 175°
2026-05-04 13:08 43.48714 15.90921 13268 ft 320 kts 176°
2026-05-04 13:09 43.46498 15.91111 12848 ft 318 kts 175°
2026-05-04 13:09 43.44302 15.91302 12420 ft 315 kts 175°
2026-05-04 13:09 43.42117 15.91491 11992 ft 314 kts 175°
2026-05-04 13:09 43.39947 15.91679 11624 ft 309 kts 175°
2026-05-04 13:10 43.37843 15.91860 11414 ft 299 kts 176°
2026-05-04 13:10 43.35789 15.92036 11237 ft 293 kts 176°
2026-05-04 13:10 43.33769 15.92393 11169 ft 293 kts 163°
2026-05-04 13:10 43.31925 15.93536 11064 ft 292 kts 145°
2026-05-04 13:11 43.30418 15.95407 10644 ft 295 kts 127°
2026-05-04 13:11 43.29421 15.97845 10215 ft 292 kts 113°
2026-05-04 13:11 43.28617 16.00406 9622 ft 289 kts 113°
2026-05-04 13:11 43.27813 16.02914 9160 ft 287 kts 114°
2026-05-04 13:12 43.27002 16.05419 8690 ft 287 kts 114°
2026-05-04 13:12 43.26191 16.07914 8221 ft 287 kts 113°
2026-05-04 13:12 43.25396 16.10390 7748 ft 286 kts 110°
2026-05-04 13:12 43.25080 16.13039 7312 ft 282 kts 83°
2026-05-04 13:13 43.25707 16.15551 6855 ft 280 kts 54°
2026-05-04 13:13 43.27104 16.17347 6390 ft 277 kts 27°
2026-05-04 13:13 43.28856 16.18397 5954 ft 275 kts 22°
2026-05-04 13:13 43.30626 16.19406 5499 ft 274 kts 22°
2026-05-04 13:14 43.32379 16.20411 5048 ft 273 kts 22°
2026-05-04 13:14 43.34064 16.21482 4662 ft 260 kts 31°
2026-05-04 13:14 43.35432 16.22927 4605 ft 235 kts 41°
2026-05-04 13:14 43.36617 16.24375 4526 ft 223 kts 41°
2026-05-04 13:15 43.37759 16.25749 4435 ft 215 kts 41°
2026-05-04 13:15 43.38884 16.27100 4345 ft 215 kts 40°
2026-05-04 13:15 43.40013 16.28459 4123 ft 217 kts 41°
2026-05-04 13:15 43.41135 16.29815 3842 ft 213 kts 41°
2026-05-04 13:16 43.42238 16.31152 3560 ft 210 kts 41°
2026-05-04 13:16 43.43325 16.32472 3284 ft 207 kts 41°
2026-05-04 13:16 43.44400 16.33773 3019 ft 204 kts 41°
2026-05-04 13:16 43.45447 16.35044 2754 ft 198 kts 42°
2026-05-04 13:17 43.46465 16.36283 2479 ft 194 kts 42°
2026-05-04 13:17 43.47437 16.37465 2222 ft 177 kts 43°
2026-05-04 13:17 43.48240 16.38646 1979 ft 162 kts 46°
2026-05-04 13:17 43.49180 16.39407 1832 ft 157 kts 13°
2026-05-04 13:18 43.50256 16.39375 1653 ft 155 kts 346°
2026-05-04 13:18 43.51292 16.39028 1454 ft 152 kts 342°
2026-05-04 13:18 43.52314 16.38620 1205 ft 152 kts 339°
2026-05-04 13:18 43.53300 16.38169 1030 ft 147 kts 333°
2026-05-04 13:19 43.54211 16.37572 886 ft 142 kts 322°
2026-05-04 13:19 43.54892 16.36633 784 ft 137 kts 298°
2026-05-04 13:19 43.55319 16.35472 687 ft 137 kts 287°
2026-05-04 13:19 43.55595 16.34217 509 ft 136 kts 276°
2026-05-04 13:20 43.55439 16.32934 324 ft 140 kts 250°
2026-05-04 13:20 43.54990 16.31785 207 ft 134 kts 232°
2026-05-04 13:20 43.54421 16.30763 65 ft 132 kts 232°
2026-05-04 13:20 43.53984 16.29957 73 ft 65 kts 232°
2026-05-04 13:21 43.53805 16.29638 85 ft 30 kts 233°
2026-05-04 13:21 43.53725 16.29503 88 ft 9 kts 208°
2026-05-04 13:21 43.53702 16.29522 89 ft 3 kts 131°
2026-05-04 13:21 43.53681 16.29570 86 ft 3 kts 139°
2026-05-04 13:22 43.53678 16.29572 88 ft 1 kts 143°
2026-05-04 13:22 43.53661 16.29574 86 ft 5 kts 181°
2026-05-04 13:22 43.53621 16.29604 88 ft 6 kts 99°
2026-05-04 13:22 43.53621 16.29659 82 ft 4 kts 94°
2026-05-04 13:23 43.53621 16.29667 82 ft 0 kts 94°